This is the latest recevied weather packets stored in our database for station/object VA3XLT-1. If no packets are shown the sender has not sent any weather packets the latest 10 day(s).
| Time | Temp. | Humidity | Pressure | Rain* | Wind** | Luminosity | Snow |
|---|---|---|---|---|---|---|---|
| 1777853262 | 14.44° C | 53% | 1009 hPa | 0 mm | - | - | - |
| 1777852962 | 15° C | 51% | 1008.9 hPa | 0 mm | - | - | - |
| 1777852662 | 15° C | 50% | 1008.9 hPa | 0 mm | - | - | - |
| 1777852362 | 15° C | 49% | 1008.8 hPa | 0 mm | - | - | - |
| 1777852062 | 15° C | 49% | 1008.9 hPa | 0 mm | - | - | - |
| 1777851762 | 15.56° C | 49% | 1008.9 hPa | 0 mm | - | - | - |
| 1777851462 | 15.56° C | 48% | 1008.9 hPa | 0 mm | - | - | - |
| 1777851162 | 15.56° C | 47% | 1009 hPa | 0 mm | - | - | - |
| 1777850862 | 15.56° C | 47% | 1009 hPa | 0 mm | - | - | - |
| 1777850562 | 15.56° C | 46% | 1009 hPa | 0 mm | - | - | - |
| 1777850262 | 15.56° C | 46% | 1009 hPa | 0 mm | - | - | - |
| 1777849962 | 15.56° C | 45% | 1009 hPa | 0 mm | - | - | - |
| 1777849662 | 15.56° C | 45% | 1009.1 hPa | 0 mm | - | - | - |
| 1777849362 | 16.11° C | 45% | 1009.1 hPa | 0 mm | - | - | - |
| 1777849062 | 16.11° C | 45% | 1009.1 hPa | 0 mm | - | - | - |
| 1777848762 | 16.11° C | 44% | 1009.1 hPa | 0 mm | - | - | - |
| 1777848462 | 16.67° C | 43% | 1009.1 hPa | 0 mm | - | - | - |
| 1777848162 | 16.67° C | 43% | 1009.3 hPa | 0 mm | - | - | - |
| 1777847862 | 16.67° C | 42% | 1009.2 hPa | 0 mm | - | - | - |
| 1777847562 | 16.67° C | 42% | 1009.3 hPa | 0 mm | - | - | - |
| 1777847262 | 16.67° C | 43% | 1009.3 hPa | 0 mm | - | - | - |
| 1777846962 | 16.67° C | 42% | 1009.3 hPa | 0 mm | - | - | - |
| 1777846662 | 16.67° C | 44% | 1009.4 hPa | 0 mm | - | - | - |
| 1777846362 | 17.22° C | 42% | 1009.3 hPa | 0 mm | - | - | - |
| 1777846062 | 16.67° C | 42% | 1009.3 hPa | 0 mm | - | - | - |
* Rain latest hour (hover to see other rain measurements)
** Current wind speed in m/s (hover to see current wind gust speed)